| time (UTC) | temp F | wind direction | speed MPH | gust MPH | rain 1hr in | rain 24hr in | rain mn in | humidity % | barometer mb |
| 20260507131536 | 72 | 122 | 2.0 | 5.0 | 0.00 | 0.00 | 0.00 | 59 | 973.1 |
| 20260507130038 | 72 | 86 | 2.0 | 7.0 | 0.00 | 0.00 | 0.00 | 59 | 973.4 |
| 20260507124527 | 72 | 100 | 3.0 | 9.0 | 0.00 | 0.00 | 0.00 | 58 | 973.5 |
| 20260507123023 | 73 | 134 | 0.0 | 6.0 | 0.00 | 0.00 | 0.00 | 56 | 973.6 |
| 20260507121523 | 73 | 1 | 2.0 | 7.0 | 0.00 | 0.00 | 0.00 | 57 | 973.7 |
| 20260507120022 | 72 | 132 | 3.0 | 7.0 | 0.00 | 0.00 | 0.00 | 58 | 973.8 |
| 20260507114522 | 72 | 126 | 1.0 | 9.0 | 0.00 | 0.00 | 0.00 | 59 | 973.6 |
| 20260507113019 | 72 | 53 | 2.0 | 7.0 | 0.00 | 0.00 | 0.00 | 57 | 973.7 |
| 20260507111518 | 72 | 115 | 3.0 | 9.0 | 0.00 | 0.00 | 0.00 | 56 | 973.6 |
| 20260507110021 | 72 | 131 | 2.0 | 10.0 | 0.00 | 0.00 | 0.00 | 57 | 973.8 |
| 20260507104516 | 72 | 96 | 3.0 | 11.0 | 0.00 | 0.00 | 0.00 | 56 | 974.1 |
| 20260507103016 | 73 | 166 | 5.0 | 10.0 | 0.00 | 0.00 | 0.00 | 53 | 974.0 |
| 20260507101515 | 74 | 198 | 1.0 | 9.0 | 0.00 | 0.00 | 0.00 | 54 | 974.0 |
| 20260507100011 | 73 | 111 | 2.0 | 10.0 | 0.00 | 0.00 | 0.00 | 53 | 974.0 |
| 20260507094509 | 73 | 140 | 3.0 | 8.0 | 0.00 | 0.00 | 0.00 | 51 | 973.9 |
| 20260507093009 | 73 | 342 | 2.0 | 11.0 | 0.00 | 0.00 | 0.00 | 51 | 974.1 |
| 20260507091512 | 72 | 94 | 2.0 | 11.0 | 0.00 | 0.00 | 0.00 | 53 | 974.0 |
| 20260507090007 | 71 | 124 | 2.0 | 9.0 | 0.00 | 0.00 | 0.00 | 52 | 974.0 |
| 20260507084505 | 71 | 206 | 3.0 | 14.0 | 0.00 | 0.00 | 0.00 | 53 | 974.1 |
| 20260507083003 | 70 | 133 | 3.0 | 9.0 | 0.00 | 0.00 | 0.00 | 53 | 974.0 |
| 20260507081502 | 71 | 82 | 4.0 | 7.0 | 0.00 | 0.00 | 0.00 | 53 | 974.2 |
| 20260507080003 | 70 | 128 | 2.0 | 9.0 | 0.00 | 0.00 | 0.00 | 55 | 974.2 |
| 20260507074600 | 70 | 151 | 2.0 | 7.0 | 0.00 | 0.00 | 0.00 | 56 | 974.5 |
| 20260507073059 | 71 | 151 | 1.0 | 4.0 | 0.00 | 0.00 | 0.00 | 54 | 974.4 |
| 20260507071605 | 71 | 12 | 0.0 | 4.0 | 0.00 | 0.00 | 0.00 | 53 | 974.2 |
| 20260507070104 | 70 | 346 | 0.0 | 4.0 | 0.00 | 0.00 | 0.00 | 54 | 974.3 |
| 20260507064626 | 69 | 125 | 0.0 | 5.0 | 0.00 | 0.00 | 0.00 | 52 | 974.2 |
| 20260507063058 | 69 | 207 | 0.0 | 5.0 | 0.00 | 0.00 | 0.00 | 54 | 974.3 |
| 20260507061551 | 68 | 102 | 0.0 | 5.0 | 0.00 | 0.00 | 0.00 | 54 | 974.3 |
| 20260507060109 | 68 | 90 | 0.0 | 3.0 | 0.00 | 0.00 | 0.00 | 53 | 974.2 |
| 20260507054551 | 66 | 213 | 1.0 | 5.0 | 0.00 | 0.00 | 0.00 | 55 | 974.1 |
| 20260507053041 | 63 | 164 | 0.0 | 5.0 | 0.00 | 0.00 | 0.00 | 60 | 974.2 |
| 20260507051547 | 58 | 141 | 0.0 | 6.0 | 0.00 | 0.00 | 0.00 | 71 | 974.1 |
| 20260507050044 | 0 | 0.0 | 0.0 | 0.00 | 0.00 | 0.00 | 974.2 | ||
| 20260507044532 | 0 | 0.0 | 0.0 | 0.00 | 0.00 | 0.00 | 974.2 | ||
| 20260507043028 | 0 | 0.0 | 0.0 | 0.00 | 0.00 | 0.00 | 974.2 | ||
| 20260507041527 | 0 | 0.0 | 0.0 | 0.00 | 0.00 | 0.00 | 974.3 | ||
| 20260507040019 | 0 | 0.0 | 0.0 | 0.00 | 0.00 | 0.00 | 974.4 | ||
| 20260507034514 | 0 | 276 | 0.0 | 1.0 | 0.00 | 0.00 | 0.00 | 974.5 | |
| 20260507033011 | 49 | 274 | 0.0 | 1.0 | 0.00 | 0.00 | 0.00 | 87 | 974.6 |
| 20260507031510 | 49 | 270 | 0.0 | 1.0 | 0.00 | 0.00 | 0.00 | 86 | 974.8 |
| 20260507030016 | 50 | 271 | 0.0 | 0.0 | 0.00 | 0.00 | 0.00 | 85 | 975.0 |
| 20260507024510 | 51 | 272 | 0.0 | 0.0 | 0.00 | 0.01 | 0.00 | 85 | 975.0 |
| 20260507023100 | 52 | 268 | 0.0 | 0.0 | 0.00 | 0.01 | 0.00 | 84 | 975.2 |
| 20260507021556 | 53 | 269 | 0.0 | 0.0 | 0.00 | 0.01 | 0.00 | 81 | 975.4 |
| 20260507020103 | 55 | 267 | 0.0 | 0.0 | 0.00 | 0.01 | 0.00 | 79 | 975.6 |
| 20260507014557 | 56 | 120 | 0.0 | 0.0 | 0.00 | 0.01 | 0.00 | 76 | 975.5 |
| 20260507013050 | 58 | 158 | 0.0 | 0.0 | 0.00 | 0.01 | 0.00 | 72 | 975.4 |
| 20260507011550 | 59 | 207 | 0.0 | 2.0 | 0.00 | 0.01 | 0.00 | 69 | 975.3 |
| 20260507010059 | 61 | 91 | 0.0 | 4.0 | 0.00 | 0.01 | 0.00 | 69 | 975.4 |
| 20260507004546 | 60 | 283 | 0.0 | 4.0 | 0.00 | 0.01 | 0.00 | 69 | 975.6 |
| 20260507003043 | 59 | 275 | 0.0 | 4.0 | 0.00 | 0.01 | 0.00 | 73 | 975.7 |
| 20260507001541 | 59 | 313 | 0.0 | 1.0 | 0.00 | 0.01 | 0.00 | 72 | 976.0 |
| 20260507000042 | 58 | 352 | 0.0 | 1.0 | 0.00 | 0.01 | 0.00 | 75 | 976.1 |
| 20260506234539 | 55 | 271 | 0.0 | 1.0 | 0.00 | 0.01 | 0.00 | 78 | 976.2 |
| 20260506233038 | 55 | 274 | 0.0 | 0.0 | 0.00 | 0.01 | 0.00 | 79 | 976.4 |
| 20260506231538 | 56 | 274 | 0.0 | 1.0 | 0.00 | 0.01 | 0.00 | 77 | 976.4 |
| 20260506230036 | 57 | 127 | 0.0 | 0.0 | 0.00 | 0.01 | 0.00 | 77 | 976.7 |
| 20260506224536 | 57 | 274 | 0.0 | 1.0 | 0.00 | 0.01 | 0.00 | 75 | 976.9 |
| 20260506223027 | 58 | 268 | 0.0 | 1.0 | 0.00 | 0.01 | 0.00 | 76 | 977.0 |
| 20260506221523 | 59 | 253 | 0.0 | 0.0 | 0.00 | 0.01 | 0.00 | 73 | 976.8 |
| 20260506220033 | 59 | 265 | 0.0 | 0.0 | 0.00 | 0.01 | 0.00 | 71 | 976.7 |
| 20260506214520 | 60 | 265 | 0.0 | 0.0 | 0.00 | 0.01 | 0.01 | 70 | 976.7 |
| 20260506213021 | 60 | 274 | 0.0 | 0.0 | 0.00 | 0.01 | 0.01 | 70 | 976.8 |
| 20260506211522 | 61 | 274 | 0.0 | 1.0 | 0.00 | 0.01 | 0.01 | 70 | 976.7 |
| 20260506210024 | 61 | 269 | 0.0 | 1.0 | 0.00 | 0.01 | 0.01 | 71 | 976.8 |
| 20260506204518 | 62 | 210 | 0.0 | 0.0 | 0.00 | 0.01 | 0.01 | 70 | 976.8 |
| 20260506203018 | 62 | 195 | 0.0 | 0.0 | 0.00 | 0.01 | 0.01 | 69 | 976.8 |
| 20260506201527 | 63 | 280 | 0.0 | 1.0 | 0.00 | 0.01 | 0.01 | 68 | 976.7 |
| 20260506200016 | 63 | 295 | 0.0 | 2.0 | 0.00 | 0.01 | 0.01 | 67 | 976.6 |
| 20260506194517 | 64 | 237 | 0.0 | 0.0 | 0.00 | 0.01 | 0.01 | 67 | 976.2 |
| 20260506193023 | 65 | 214 | 0.0 | 5.0 | 0.00 | 0.01 | 0.01 | 64 | 976.2 |
| 20260506191515 | 66 | 273 | 0.0 | 0.0 | 0.00 | 0.01 | 0.01 | 68 | 975.7 |
| 20260506190023 | 66 | 225 | 0.0 | 1.0 | 0.00 | 0.01 | 0.01 | 67 | 975.6 |
| 20260506184520 | 67 | 299 | 0.0 | 1.0 | 0.00 | 0.01 | 0.01 | 68 | 975.5 |
| 20260506183013 | 68 | 253 | 0.0 | 3.0 | 0.00 | 0.01 | 0.01 | 68 | 974.9 |
| 20260506181514 | 68 | 274 | 0.0 | 3.0 | 0.00 | 0.01 | 0.01 | 67 | 974.8 |
| 20260506180020 | 69 | 98 | 0.0 | 4.0 | 0.00 | 0.01 | 0.01 | 64 | 975.0 |
| 20260506174522 | 69 | 131 | 0.0 | 3.0 | 0.00 | 0.01 | 0.01 | 58 | 975.6 |
| 20260506173011 | 70 | 95 | 0.0 | 3.0 | 0.00 | 0.01 | 0.01 | 55 | 975.6 |
| 20260506171516 | 71 | 143 | 1.0 | 4.0 | 0.00 | 0.01 | 0.01 | 54 | 975.9 |
| 20260506170010 | 72 | 162 | 0.0 | 2.0 | 0.00 | 0.01 | 0.01 | 53 | 975.9 |
| 20260506164509 | 73 | 148 | 0.0 | 0.0 | 0.00 | 0.01 | 0.01 | 52 | 975.4 |
| 20260506163010 | 73 | 133 | 0.0 | 1.0 | 0.00 | 0.01 | 0.01 | 48 | 975.3 |
| 20260506161508 | 75 | 163 | 0.0 | 1.0 | 0.00 | 0.01 | 0.01 | 48 | 975.4 |
| 20260506160009 | 75 | 124 | 0.0 | 0.0 | 0.00 | 0.01 | 0.01 | 46 | 975.4 |
| 20260506154510 | 74 | 124 | 0.0 | 3.0 | 0.00 | 0.01 | 0.01 | 45 | 975.4 |
| 20260506153003 | 77 | 159 | 0.0 | 0.0 | 0.00 | 0.01 | 0.01 | 35 | 976.0 |
| 20260506151600 | 77 | 160 | 0.0 | 0.0 | 0.00 | 0.01 | 0.01 | 32 | 976.4 |
| 20260506150059 | 77 | 207 | 0.0 | 1.0 | 0.00 | 0.01 | 0.01 | 34 | 976.6 |
| 20260506144604 | 76 | 165 | 0.0 | 1.0 | 0.00 | 0.01 | 0.01 | 32 | 976.4 |
| 20260506143058 | 76 | 104 | 0.0 | 2.0 | 0.00 | 0.01 | 0.01 | 34 | 976.7 |
| 20260506141556 | 75 | 124 | 0.0 | 5.0 | 0.00 | 0.01 | 0.01 | 32 | 976.6 |
| 20260506140056 | 76 | 161 | 0.0 | 5.0 | 0.00 | 0.01 | 0.01 | 37 | 976.6 |
| 20260506134554 | 77 | 108 | 1.0 | 5.0 | 0.00 | 0.01 | 0.01 | 38 | 976.7 |
| 20260506133053 | 76 | 234 | 1.0 | 7.0 | 0.00 | 0.01 | 0.01 | 36 | 976.7 |